This is the latest recevied weather packets stored in our database for station/object F4IKI-10. If no packets are shown the sender has not sent any weather packets the latest 10 day(s).
| Time | Temp. | Humidity | Pressure | Rain* | Wind** | Luminosity | Snow |
|---|---|---|---|---|---|---|---|
| 1777912133 | 21.11° C | 65% | 1016.3 hPa | - | - | - | - |
| 1777911233 | 20.56° C | 65% | 1015.8 hPa | - | - | - | - |
| 1777910332 | 20.56° C | 63% | 1015.6 hPa | - | - | - | - |
| 1777909432 | 17.78° C | 67% | 1015.8 hPa | - | - | - | - |
| 1777908532 | 19.44° C | 64% | 1016.1 hPa | - | - | - | - |
| 1777907632 | 19.44° C | 65% | 1015.9 hPa | - | - | - | - |
| 1777906732 | 19.44° C | 65% | 1016 hPa | - | - | - | - |
| 1777905832 | 19.44° C | 65% | 1015.9 hPa | - | - | - | - |
| 1777904932 | 19.44° C | 65% | 1015.8 hPa | - | - | - | - |
| 1777904032 | 19.44° C | 65% | 1016 hPa | - | - | - | - |
| 1777903132 | 19.44° C | 65% | 1015.7 hPa | - | - | - | - |
| 1777902231 | 19.44° C | 65% | 1015.6 hPa | - | - | - | - |
| 1777901331 | 19.44° C | 65% | 1015.6 hPa | - | - | - | - |
| 1777900431 | 19.44° C | 64% | 1015.6 hPa | - | - | - | - |
| 1777899531 | 19.44° C | 64% | 1015.6 hPa | - | - | - | - |
| 1777898631 | 19.44° C | 64% | 1015.7 hPa | - | - | - | - |
| 1777897731 | 19.44° C | 63% | 1015.5 hPa | - | - | - | - |
| 1777896831 | 19.44° C | 63% | 1015.5 hPa | - | - | - | - |
| 1777895931 | 19.44° C | 62% | 1015.4 hPa | - | - | - | - |
| 1777895031 | 19.44° C | 62% | 1015.2 hPa | - | - | - | - |
| 1777894131 | 18.89° C | 61% | 1015.3 hPa | - | - | - | - |
| 1777893230 | 18.33° C | 62% | 1015.4 hPa | - | - | - | - |
| 1777892330 | 18.33° C | 62% | 1015.3 hPa | - | - | - | - |
| 1777891430 | 18.33° C | 62% | 1015.3 hPa | - | - | - | - |
| 1777890530 | 18.33° C | 62% | 1015.3 hPa | - | - | - | - |
* Rain since midnight (hover to see other rain measurements)
** Current wind speed in m/s (hover to see current wind gust speed)